Location: Unspecified
(35.6961°N, 0.0000°E)
Time: 08:41:00
(UTC+00:00)

Vanguard 3 - Pass Details

Date: 01 June 2019
Orbit: 508 x 3263 km, 33.3° (Epoch: 19 June)

Event Time Altitude Azimuth Distance (km) Brightness Sun altitude
Rises 20:23:51 0° 267° (W) 2,873 10.8 -13.2°
Reaches altitude 10° 20:25:45 10° 265° (W) 2,121 10.0 -13.5°
Maximum altitude 20:30:31 72° 182° (S) 959 7.3 -14.2°
Enters shadow 20:37:40 13° 100° (E) 3,165 9.7 -15.3°
Drops below altitude 10° 20:38:43 10° 100° (E) 3,547 - -15.4°
Sets 20:42:45 0° 98° (E) 4,999 - -16.0°
